User: anonymous   Login
Location: Oshawa
(43.9000°N, 78.8670°W)
Time: 17:21:34
(UTC-04:00)
Language:

CARTOSAT-1 - Orbit

View from above orbital plane
View from above orbital plane
View from above satellite
View from above satellite

Ground track
Ground track

The orbit data is extracted from the following two-line orbital elements,

1 28649U 05017A   15125.40965990  .00000812  00000-0  10514-3 0  9993
2 28649 097.7988 197.6573 0002312 060.6928 299.4514 14.83486853541268
Epoch (UTC): 05 May 2015 09:49:54
Eccentricity: 0.0002312
inclination: 97.7988°
perigee height: 617 km
apogee height: 620 km
right ascension of ascending node: 197.6573°
argument of perigee: 60.6928°
revolutions per day: 14.83486853
mean anomaly at epoch: 299.4514°
orbit number at epoch: 54126

The dashed part of the orbit path shows where the satellite is in the earth's shadow,  

DLR